PBO Station Position Time Series. Reference Frame : NAM14
Format Version,1.1.1
4-character ID,P454
Station name,CouleeDam_WA2005
Begin Date, 2005-05-27
End Date, 2023-06-26
Release Date, 2023-06-27
Reference position, 47.9538157393 North Latitude, -118.9925788270 East Longitude, 478.95488 meters elevation,
Date, North (mm), East (mm), Vertical (mm), North Std. Deviation (mm), East Std. Deviation (mm),              Vertical Std. Deviation (mm), Quality,
2005-05-27,0.00, 0.00, 0.00, 2.30, 1.58, 7.20, repro,
2005-05-28,0.91, -1.02, -1.50, 2.29, 1.58, 7.18, repro,
2005-05-29,3.26, 0.30, 1.16, 2.28, 1.58, 7.15, repro,
2005-05-30,1.62, -1.11, 1.49, 2.29, 1.59, 7.19, repro,
2005-05-31,1.14, -1.87, -2.27, 2.30, 1.58, 7.20, repro,
2005-06-01,-0.47, -0.52, 3.03, 2.29, 1.54, 7.03, repro,
2005-06-02,-0.63, -1.91, 2.98, 2.28, 1.55, 7.04, repro,
2005-06-03,1.91, -1.68, 1.10, 2.26, 1.54, 6.96, repro,
2005-06-04,0.66, -0.69, 4.04, 2.26, 1.54, 6.98, repro,
2005-06-05,1.42, -1.71, 5.40, 2.27, 1.54, 6.96, repro,
2005-06-06,0.71, -0.56, -1.89, 2.34, 1.57, 7.16, repro,
2005-06-07,0.19, -0.62, 2.08, 2.28, 1.54, 7.02, repro,
2005-06-08,0.23, -0.52, 2.24, 2.26, 1.54, 6.97, repro,
2005-06-09,1.79, -0.69, 2.81, 2.27, 1.55, 7.03, repro,
2005-06-10,-0.39, -0.89, 4.47, 2.32, 1.59, 7.18, repro,
2005-06-11,0.70, -1.89, 4.42, 2.33, 1.58, 7.18, repro,
2005-06-12,-0.08, -0.35, 1.43, 2.36, 1.61, 7.28, repro,
2005-06-13,0.43, -1.32, 1.16, 2.33, 1.60, 7.24, repro,
2005-06-14,-0.96, -0.21, -2.91, 2.30, 1.59, 7.16, repro,
2005-06-15,2.87, -1.31, 0.87, 2.26, 1.54, 6.98, repro,
2005-06-16,1.90, -1.63, 3.65, 2.34, 1.56, 7.06, repro,
2005-06-17,0.99, -0.71, 3.71, 2.38, 1.57, 7.11, repro,
2005-06-18,1.10, -2.16, 1.56, 2.32, 1.59, 7.16, repro,
2005-06-19,0.27, -1.21, -4.51, 2.28, 1.55, 7.00, repro,
2005-06-20,1.26, 1.15, 0.74, 2.26, 1.55, 7.00, repro,
2005-06-21,0.37, -0.93, -6.06, 2.29, 1.56, 7.11, repro,
2005-06-22,-1.36, -2.82, -1.52, 2.29, 1.55, 7.08, repro,
2005-06-23,-0.29, -0.22, -7.28, 2.29, 1.54, 7.04, repro,
2005-06-24,0.07, -1.33, -2.35, 2.28, 1.55, 7.04, repro,
2005-06-25,-0.33, -0.55, 1.71, 2.28, 1.56, 7.02, repro,
2005-06-26,0.21, -1.65, 4.56, 2.32, 1.58, 7.10, repro,
2005-06-27,0.65, -1.89, 0.45, 2.29, 1.55, 7.01, repro,
2005-06-28,2.12, -1.56, -1.38, 2.35, 1.57, 7.14, repro,
2005-06-29,0.75, -2.22, -2.43, 2.25, 1.53, 6.93, repro,
2005-06-30,1.14, -2.72, 4.01, 2.27, 1.55, 6.99, repro,
2005-07-01,-0.52, -2.02, 7.92, 2.27, 1.55, 7.04, repro,
2005-07-02,-2.88, -2.97, 9.63, 2.26, 1.53, 6.93, repro,
2005-07-03,-0.92, -1.51, 1.68, 2.27, 1.53, 6.96, repro,
2005-07-04,-0.62, -1.84, 0.09, 2.27, 1.53, 6.97, repro,
2005-07-05,-1.96, -0.94, -4.63, 2.30, 1.57, 7.14, repro,
2005-07-06,-1.65, -1.90, 9.32, 2.27, 1.55, 7.01, repro,
2005-07-07,-1.47, -2.21, -0.63, 2.42, 1.62, 7.31, repro,
2005-07-08,-0.79, -2.53, 9.40, 2.32, 1.60, 7.27, repro,
2005-07-09,1.90, -3.68, 6.55, 2.37, 1.65, 7.49, repro,
2005-07-10,-0.63, -1.49, 7.09, 2.48, 1.76, 7.95, repro,
2005-07-11,4.31, -2.61, 5.35, 3.38, 2.54, 11.23, repro,
2005-07-29,-11.71, 3.65, 21.88, 10.71, 7.95, 30.46, repro,
2005-07-30,0.43, -1.03, 3.56, 2.30, 1.59, 7.23, repro,
2005-10-27,0.92, 0.33, 7.98, 4.58, 3.13, 14.02, repro,
2005-10-28,0.74, -0.25, 11.72, 2.28, 1.55, 7.04, repro,
2005-10-29,2.38, -0.45, 9.31, 2.33, 1.59, 7.26, repro,
2005-10-30,1.25, -0.59, 1.84, 2.27, 1.55, 7.05, repro,
2005-10-31,0.99, 0.24, 8.46, 2.45, 1.69, 7.60, repro,
2005-11-01,2.21, -1.10, 6.10, 2.49, 1.73, 7.74, repro,
2005-11-02,0.08, -1.16, 4.93, 2.46, 1.77, 7.82, repro,
2005-11-03,0.99, -1.41, 11.53, 2.37, 1.65, 7.33, repro,
2005-11-04,1.78, -1.48, 13.43, 2.41, 1.70, 7.60, repro,
2005-11-05,0.91, -0.62, 4.50, 2.45, 1.75, 7.67, repro,
2005-11-06,0.26, -0.01, 9.57, 2.45, 1.72, 7.52, repro,
2005-11-07,1.34, -0.58, 1.81, 2.45, 1.74, 7.65, repro,
2005-11-08,0.39, 0.05, 0.17, 2.41, 1.72, 7.60, repro,
2005-11-09,0.97, -1.60, -0.08, 2.46, 1.76, 7.77, repro,
2005-11-10,-0.40, 0.28, 7.26, 2.60, 1.84, 8.12, repro,
2005-11-11,0.01, -1.00, 6.97, 2.44, 1.68, 7.58, repro,
2005-11-12,-0.22, -0.08, 6.69, 2.29, 1.60, 7.04, repro,
2005-11-13,0.57, 0.23, 5.33, 2.54, 1.81, 7.73, repro,
2005-11-14,0.59, -2.40, -3.61, 2.32, 1.60, 7.17, repro,
2005-11-15,1.38, -0.60, -3.73, 2.28, 1.55, 7.11, repro,
2005-11-16,0.46, -0.68, -8.21, 2.31, 1.59, 7.25, repro,
2005-11-17,0.37, -0.16, -6.26, 2.27, 1.55, 7.03, repro,
2005-11-18,0.22, -0.63, -4.29, 2.27, 1.55, 7.05, repro,
2005-11-19,0.05, -0.77, -1.14, 2.27, 1.56, 7.07, repro,
2005-11-20,1.11, -0.56, -2.93, 2.31, 1.58, 7.26, repro,
2005-11-21,0.15, 0.21, -1.52, 2.44, 1.64, 7.54, repro,
2005-11-22,0.91, 0.53, -0.36, 2.37, 1.66, 7.49, repro,
2005-11-23,1.08, -0.51, 0.93, 2.35, 1.64, 7.42, repro,
2005-11-24,-0.43, -0.80, 1.31, 2.32, 1.60, 7.23, repro,
2005-11-25,0.68, -0.82, 5.03, 2.33, 1.59, 7.25, repro,
2005-11-26,0.77, -1.86, 8.10, 2.46, 1.67, 7.68, repro,
2005-11-27,0.61, -0.90, 3.43, 2.29, 1.57, 7.16, repro,
2005-11-28,1.36, -0.41, 0.26, 2.33, 1.62, 7.34, repro,
2005-11-29,1.54, -0.94, 4.24, 2.36, 1.61, 7.34, repro,
2005-11-30,1.23, -0.94, -0.82, 2.31, 1.57, 7.15, repro,
2005-12-01,1.28, -0.86, 3.70, 2.29, 1.56, 7.13, repro,
2005-12-02,1.49, -0.17, 2.51, 2.27, 1.56, 7.11, repro,
2005-12-03,1.02, -0.28, 5.91, 2.29, 1.57, 7.14, repro,
2005-12-04,1.85, -0.18, -1.84, 2.31, 1.58, 7.19, repro,
2005-12-05,1.46, -0.33, -5.47, 2.30, 1.58, 7.14, repro,
2005-12-06,1.35, -0.52, -6.34, 2.27, 1.53, 7.00, repro,
2005-12-07,0.14, 0.07, -2.01, 2.32, 1.60, 7.28, repro,
2005-12-08,-0.25, -0.36, 2.13, 2.32, 1.61, 7.30, repro,
2005-12-09,-0.29, -0.50, -0.22, 2.31, 1.58, 7.18, repro,
2005-12-10,0.19, -0.30, -2.22, 2.35, 1.61, 7.34, repro,
2005-12-11,-0.09, 0.04, -0.39, 2.29, 1.56, 7.10, repro,
2005-12-12,0.42, -0.47, -1.93, 2.29, 1.56, 7.10, repro,
2005-12-13,0.93, -1.34, -0.74, 2.30, 1.57, 7.19, repro,
2005-12-14,0.17, -0.91, -6.99, 2.30, 1.58, 7.18, repro,
2005-12-15,0.73, -0.34, -7.69, 2.35, 1.60, 7.29, repro,
2005-12-16,0.11, 0.20, -1.82, 2.28, 1.54, 7.06, repro,
2005-12-17,0.14, -0.13, -2.54, 2.35, 1.61, 7.24, repro,
2005-12-18,0.73, -1.06, -6.08, 2.38, 1.69, 7.51, repro,
2005-12-19,-0.32, -1.22, -4.02, 2.41, 1.68, 7.43, repro,
2005-12-20,-0.07, -0.56, -6.22, 2.40, 1.70, 7.53, repro,
2005-12-21,-1.22, -1.57, -7.10, 2.34, 1.64, 7.27, repro,
2005-12-22,0.49, -0.03, 5.76, 2.33, 1.64, 7.26, repro,
2005-12-23,0.40, -1.19, 0.15, 2.40, 1.65, 7.37, repro,
2005-12-24,-0.67, -0.64, -3.44, 2.55, 1.75, 8.03, repro,
2005-12-25,1.24, 0.06, 4.40, 2.37, 1.65, 7.36, repro,
2005-12-26,0.96, -0.46, 4.85, 2.36, 1.63, 7.29, repro,
2005-12-27,1.89, 1.45, -2.14, 3.59, 2.27, 10.16, repro,
2006-01-01,-0.05, -0.14, 9.75, 5.02, 3.74, 20.55, repro,
2006-01-02,-1.91, -1.48, 9.68, 6.36, 4.58, 19.25, repro,
2006-01-04,1.97, -0.08, 0.94, 6.95, 5.31, 24.99, repro,
2006-01-05,0.49, 1.03, -14.83, 3.67, 2.37, 10.52, repro,
2006-01-08,2.54, -1.02, -0.75, 4.08, 3.03, 14.91, repro,
2006-01-09,-0.81, -0.92, -1.11, 2.42, 1.70, 7.68, repro,
2006-01-10,-0.60, 0.11, 1.34, 2.42, 1.71, 7.70, repro,
2006-01-11,-0.60, 0.65, 9.83, 2.44, 1.73, 7.79, repro,
2006-01-12,0.22, -0.05, -3.64, 2.40, 1.71, 7.44, repro,
2006-01-13,0.75, 0.78, 1.07, 2.57, 1.76, 8.31, repro,
2006-01-14,0.99, 0.32, -1.04, 2.33, 1.61, 7.21, repro,
2006-01-15,1.41, -0.30, -3.51, 2.86, 1.94, 9.05, repro,
2006-01-16,0.98, -0.26, -7.11, 2.41, 1.74, 7.59, repro,
2006-01-17,0.24, 0.19, -1.67, 2.45, 1.74, 7.64, repro,
2006-01-18,0.41, -1.01, 6.02, 2.32, 1.58, 7.16, repro,
2006-01-19,0.47, -0.78, -2.89, 2.33, 1.58, 7.20, repro,
2006-01-20,1.20, -0.03, -5.59, 3.32, 2.23, 10.20, repro,
2006-01-21,0.46, -0.26, -6.53, 2.31, 1.59, 7.13, repro,
2006-01-22,1.92, 0.09, -9.37, 4.67, 3.08, 13.25, repro,
2006-01-24,0.14, 0.68, 0.28, 4.11, 2.92, 14.68, repro,
2006-01-25,0.33, -1.11, -7.31, 2.24, 1.53, 6.92, repro,
2006-01-26,0.86, -0.63, -2.27, 2.23, 1.52, 6.87, repro,
2006-01-27,0.13, -0.41, -3.34, 2.22, 1.51, 6.83, repro,
2006-01-28,2.61, 0.66, -3.50, 2.23, 1.52, 6.92, repro,
2006-01-29,0.37, -0.46, -2.82, 2.25, 1.53, 6.98, repro,
2006-01-30,-1.60, 1.54, 0.05, 2.23, 1.52, 6.93, repro,
2006-01-31,-0.57, -0.42, -2.90, 2.24, 1.53, 6.97, repro,
2006-02-01,1.25, 0.00, 8.99, 2.22, 1.52, 6.90, repro,
2006-02-02,0.84, -1.27, -0.59, 2.23, 1.52, 6.91, repro,
2006-02-03,-0.52, -1.00, -1.40, 2.23, 1.51, 6.94, repro,
2006-02-04,-1.90, -0.41, -2.72, 2.25, 1.52, 6.99, repro,
2006-02-05,0.07, -1.44, -6.28, 2.25, 1.52, 7.02, repro,
2006-02-06,-0.47, 0.27, -12.11, 2.24, 1.53, 7.02, repro,
2006-02-07,0.09, -0.36, -13.94, 2.24, 1.51, 6.92, repro,
2006-02-08,-0.41, -0.03, -12.68, 2.23, 1.51, 6.93, repro,
2006-02-09,0.41, -0.75, -14.97, 2.31, 1.53, 7.03, repro,
2006-02-10,0.80, -1.37, -17.40, 2.39, 1.56, 7.15, repro,
2006-02-11,0.34, -0.79, -16.90, 2.26, 1.53, 7.08, repro,
2006-02-12,0.40, -0.38, -13.10, 2.25, 1.51, 6.99, repro,
2006-02-13,0.02, -1.03, -11.22, 2.25, 1.51, 6.97, repro,
2006-02-14,0.68, -1.00, -2.65, 2.24, 1.51, 6.99, repro,
2006-02-15,0.49, -1.54, -6.05, 2.25, 1.52, 7.00, repro,
2006-02-16,0.91, -0.93, -7.65, 2.24, 1.52, 6.97, repro,
2006-02-17,1.47, -0.07, -13.43, 2.26, 1.52, 7.02, repro,
2006-02-18,-0.32, -0.68, -12.75, 2.26, 1.52, 7.01, repro,
2006-02-19,0.49, -0.15, -6.05, 2.26, 1.53, 7.00, repro,
2006-02-20,-0.14, -1.35, -1.16, 2.25, 1.53, 6.98, repro,
2006-02-21,0.46, -1.42, -0.67, 2.26, 1.52, 6.97, repro,
2006-02-22,0.87, -2.64, 0.95, 2.24, 1.52, 6.95, repro,
2006-02-23,0.82, -0.08, -2.03, 2.25, 1.53, 7.01, repro,
2006-02-24,1.87, -1.54, -9.79, 2.25, 1.52, 6.95, repro,
2006-02-25,1.16, -0.93, -10.00, 2.24, 1.52, 6.96, repro,
2006-02-26,1.56, -0.60, -3.77, 2.24, 1.52, 6.96, repro,
2006-02-27,1.44, -0.71, 4.02, 2.23, 1.52, 6.92, repro,
2006-02-28,-0.07, -1.76, 5.41, 2.28, 1.54, 7.04, repro,
2006-03-01,1.75, -0.60, -2.18, 2.33, 1.58, 7.25, repro,
2006-03-02,0.97, -1.79, 0.39, 2.25, 1.53, 7.01, repro,
2006-03-03,0.96, -0.93, -2.42, 2.32, 1.54, 7.14, repro,
2006-03-04,1.55, -1.12, -3.93, 2.23, 1.52, 6.92, repro,
2006-03-05,1.06, -0.67, -4.63, 2.23, 1.53, 6.95, repro,
2006-03-06,0.78, -1.15, -5.38, 2.23, 1.53, 6.96, repro,
2006-03-07,0.29, -1.13, -0.37, 2.23, 1.53, 6.95, repro,
2006-03-08,1.53, -1.61, 1.49, 2.22, 1.54, 6.97, repro,
2006-03-09,0.04, -1.31, 10.51, 2.23, 1.53, 6.96, repro,
2006-03-10,1.45, -2.18, 4.03, 2.24, 1.53, 6.92, repro,
2006-03-11,1.17, -1.58, 0.79, 2.26, 1.55, 7.04, repro,
2006-03-12,1.62, -0.81, -2.10, 2.26, 1.55, 7.08, repro,
2006-03-13,-0.02, -1.07, -3.37, 2.26, 1.54, 7.09, repro,
2006-03-14,0.77, -1.08, -0.40, 2.28, 1.56, 7.16, repro,
2006-03-15,0.98, -0.54, -4.07, 2.26, 1.55, 7.08, repro,
2006-03-16,3.36, -1.04, -7.77, 2.34, 1.58, 7.31, repro,
2006-03-17,0.46, -0.68, -10.67, 2.36, 1.60, 7.46, repro,
2006-03-18,1.42, -1.25, -6.31, 2.26, 1.56, 7.12, repro,
2006-03-19,1.90, -1.47, -7.07, 2.28, 1.56, 7.15, repro,
2006-03-20,1.23, -0.96, -4.93, 2.28, 1.56, 7.18, repro,
2006-03-21,1.20, -1.16, -2.82, 2.28, 1.56, 7.14, repro,
2006-03-22,1.35, -1.63, -11.87, 2.28, 1.57, 7.17, repro,
2006-03-23,1.12, -0.59, -10.77, 2.32, 1.59, 7.24, repro,
2006-03-24,1.56, -0.64, 0.41, 2.31, 1.59, 7.21, repro,
2006-03-25,0.10, -0.65, 2.90, 2.31, 1.58, 7.12, repro,
2006-03-26,-1.23, -1.96, -0.36, 2.32, 1.59, 7.20, repro,
2006-03-27,-0.33, -1.31, -3.46, 2.34, 1.59, 7.20, repro,
2006-03-28,0.83, -1.60, -2.08, 2.26, 1.56, 7.08, repro,
2006-03-29,0.88, -2.09, 0.38, 2.20, 1.54, 6.96, repro,
2006-03-30,0.96, -0.34, -1.29, 2.19, 1.53, 6.90, repro,
2006-03-31,-0.01, -2.38, -2.98, 2.21, 1.54, 7.00, repro,
2006-04-01,0.72, -2.26, -3.29, 2.21, 1.54, 6.96, repro,
2006-04-02,-0.02, -1.55, -6.82, 2.22, 1.55, 7.05, repro,
2006-04-03,-0.17, -1.59, -9.06, 2.19, 1.55, 6.99, repro,
2006-04-04,0.49, -1.47, -1.11, 2.20, 1.54, 6.96, repro,
2006-04-05,0.37, -1.95, 1.45, 2.19, 1.53, 6.91, repro,
2006-04-06,-0.86, -2.11, -0.14, 2.22, 1.57, 7.12, repro,
2006-04-07,0.55, -1.34, -2.64, 2.30, 1.58, 7.27, repro,
2006-04-08,0.79, -1.55, -3.70, 2.35, 1.60, 7.40, repro,
2006-04-09,0.43, -1.68, -2.37, 2.21, 1.54, 7.00, repro,
2006-04-10,1.00, -1.45, -1.95, 2.20, 1.53, 6.96, repro,
2006-04-11,0.73, -1.54, 4.10, 2.26, 1.56, 7.17, repro,
2006-04-12,-0.16, -0.79, -4.25, 2.26, 1.56, 7.19, repro,
2006-04-13,-0.82, -2.16, 1.27, 2.21, 1.54, 7.03, repro,
2006-04-14,-1.57, -1.58, 6.20, 2.21, 1.55, 7.06, repro,
2006-04-15,0.78, -1.00, 13.03, 2.26, 1.57, 7.17, repro,
2006-04-16,2.12, -0.96, 3.72, 2.19, 1.53, 6.95, repro,
2006-04-17,0.01, -1.96, 2.66, 2.18, 1.53, 6.95, repro,
2006-04-18,0.80, -1.72, -3.55, 2.20, 1.53, 6.97, repro,
2006-04-19,1.21, -0.85, -6.14, 2.21, 1.54, 7.01, repro,
2006-04-20,1.80, -1.39, -0.12, 2.25, 1.57, 7.15, repro,
2006-04-21,0.72, -2.30, 0.23, 2.19, 1.52, 6.93, repro,
2006-04-22,2.20, -1.34, -1.35, 2.19, 1.53, 6.96, repro,
2006-04-23,1.83, -1.21, -0.69, 2.23, 1.58, 7.14, repro,
2006-04-24,1.24, -0.55, -3.95, 2.25, 1.58, 7.16, repro,
2006-04-25,1.76, -1.75, -0.53, 2.25, 1.59, 7.18, repro,
2006-04-26,2.04, -1.84, -0.84, 2.24, 1.57, 7.15, repro,
2006-04-27,0.12, -0.17, -2.59, 2.30, 1.59, 7.23, repro,
2006-04-28,0.71, -1.91, -6.01, 2.24, 1.54, 7.05, repro,
2006-04-29,0.96, -2.46, -2.90, 2.22, 1.54, 7.04, repro,
2006-04-30,1.15, -2.82, -4.59, 2.22, 1.54, 7.06, repro,
2006-05-01,0.87, -2.47, -2.69, 2.22, 1.54, 7.02, repro,
2006-05-02,1.61, -3.30, -9.39, 2.20, 1.53, 7.00, repro,
2006-05-03,0.94, -2.74, -3.51, 2.19, 1.54, 6.99, repro,
2006-05-04,0.72, -2.39, -5.76, 2.20, 1.53, 6.97, repro,
2006-05-05,1.50, -1.79, -2.16, 2.23, 1.53, 7.03, repro,
2006-05-06,0.84, -3.04, 1.96, 2.20, 1.54, 7.01, repro,
2006-05-07,1.57, -1.14, 6.45, 2.22, 1.54, 7.02, repro,
2006-05-08,1.76, -1.67, 2.27, 2.20, 1.55, 7.05, repro,
2006-05-09,1.22, -2.12, -2.05, 2.27, 1.56, 7.10, repro,
2006-05-10,1.47, -1.01, -6.22, 2.22, 1.53, 7.03, repro,
2006-05-11,0.87, -1.75, -0.53, 2.21, 1.53, 7.01, repro,
2006-05-12,1.47, -1.95, 1.46, 2.21, 1.54, 7.03, repro,
2006-05-13,0.81, -2.13, 0.06, 2.20, 1.54, 7.01, repro,
2006-05-14,0.58, -1.92, -4.69, 2.21, 1.54, 7.05, repro,
2006-05-15,1.66, -0.82, -5.79, 2.20, 1.53, 7.01, repro,
2006-05-16,1.24, -0.64, -2.48, 2.23, 1.56, 7.19, repro,
2006-05-17,1.55, -1.36, -1.19, 2.28, 1.62, 7.37, repro,
2006-05-18,2.12, -3.00, -0.11, 2.24, 1.56, 7.12, repro,
2006-05-19,0.27, -2.07, 8.88, 2.28, 1.56, 7.14, repro,
2006-05-20,-0.85, -1.67, 5.98, 2.28, 1.57, 7.20, repro,
2006-05-21,1.81, -1.42, 5.31, 2.29, 1.55, 7.11, repro,
2006-05-22,0.83, -0.43, 6.74, 2.31, 1.60, 7.33, repro,
2006-05-23,1.77, -2.14, 4.61, 2.31, 1.57, 7.18, repro,
2006-05-24,0.10, -1.64, 1.88, 2.28, 1.56, 7.12, repro,
2006-05-25,0.81, -1.26, 0.41, 2.35, 1.59, 7.35, repro,
2006-05-26,0.95, -1.40, -1.60, 2.35, 1.60, 7.39, repro,
2006-05-27,2.97, -0.22, 4.17, 2.29, 1.56, 7.16, repro,
2006-05-28,1.16, -1.11, 2.98, 2.28, 1.57, 7.19, repro,
2006-05-29,1.54, -1.83, -3.38, 2.29, 1.57, 7.17, repro,
2006-05-30,2.17, -0.64, -3.43, 2.28, 1.57, 7.19, repro,
2006-05-31,0.57, -0.66, -2.83, 2.27, 1.55, 7.10, repro,
2006-06-01,-0.03, 0.12, -3.79, 2.35, 1.60, 7.34, repro,
2006-06-02,0.29, -0.98, 4.20, 2.40, 1.62, 7.41, repro,
2006-06-03,-2.94, -0.82, -4.12, 2.42, 1.69, 7.69, repro,
2006-06-04,-0.63, -0.48, 3.90, 2.35, 1.60, 7.33, repro,
2006-06-05,0.06, -0.32, -1.93, 2.33, 1.59, 7.27, repro,
2006-06-06,0.47, 0.48, -5.82, 2.34, 1.64, 7.51, repro,
2006-06-07,1.43, -1.16, -8.96, 2.36, 1.60, 7.36, repro,
2006-06-08,2.24, -1.05, 1.40, 2.36, 1.61, 7.36, repro,
2006-06-09,0.17, -0.75, -1.27, 2.29, 1.56, 7.10, repro,
2006-06-10,1.19, -0.86, -1.05, 2.27, 1.55, 7.08, repro,
2006-06-11,0.69, -0.58, 0.47, 2.25, 1.55, 7.05, repro,
2006-06-12,0.22, 0.44, -5.89, 2.30, 1.57, 7.18, repro,
2006-06-13,1.01, -0.64, -2.00, 2.40, 1.66, 7.49, repro,
2006-06-14,0.38, -1.73, 1.32, 2.28, 1.55, 7.07, repro,
2006-06-15,-0.49, -0.40, 2.07, 2.27, 1.55, 7.08, repro,
2006-06-16,-0.56, -1.18, -1.44, 2.31, 1.59, 7.20, repro,
2006-06-17,-1.32, -0.73, 5.33, 2.48, 1.78, 8.00, repro,
2006-06-18,-0.07, -0.52, -3.13, 2.49, 1.73, 7.91, repro,
2006-06-19,-0.35, -1.08, -1.35, 2.31, 1.59, 7.26, repro,
2006-06-20,0.05, -0.98, -1.93, 2.32, 1.60, 7.33, repro,
2006-06-21,0.27, -1.25, -3.99, 2.30, 1.60, 7.27, repro,
2006-06-22,0.11, -0.92, -5.51, 2.29, 1.59, 7.24, repro,
2006-06-23,2.15, -0.82, -8.37, 2.32, 1.62, 7.35, repro,
2006-06-24,0.11, 0.80, -3.86, 2.31, 1.60, 7.28, repro,
2006-06-25,0.10, 0.05, -7.19, 2.34, 1.61, 7.34, repro,
2006-06-26,1.36, 0.07, -5.19, 2.36, 1.66, 7.49, repro,
2006-06-27,-1.30, -1.10, 1.02, 2.29, 1.61, 7.24, repro,
2006-06-28,-0.18, -0.16, -2.72, 2.30, 1.61, 7.32, repro,
2006-06-29,0.46, -0.92, 3.28, 2.23, 1.57, 7.15, repro,
2006-06-30,0.56, -0.13, 2.30, 2.27, 1.55, 7.15, repro,
2006-07-01,2.40, -0.08, 2.66, 2.32, 1.61, 7.36, repro,
2006-07-02,1.44, 0.46, -0.48, 2.27, 1.56, 7.21, repro,
2006-07-03,2.63, 0.51, -3.32, 2.25, 1.56, 7.17, repro,
2006-07-04,2.09, -0.43, -1.79, 2.29, 1.61, 7.43, repro,
2006-07-05,1.65, -2.12, 10.83, 2.35, 1.64, 7.52, repro,
2006-07-06,-0.23, -2.13, -2.07, 2.32, 1.61, 7.42, repro,
2006-07-07,1.41, -1.00, -4.86, 2.26, 1.56, 7.17, repro,
2006-07-08,-0.17, 0.35, -5.12, 2.25, 1.56, 7.20, repro,
2006-07-09,0.70, -0.72, -0.45, 2.24, 1.55, 7.15, repro,
2006-07-10,-1.28, -0.54, 0.85, 2.26, 1.57, 7.25, repro,
2006-07-11,-0.89, 0.93, 10.31, 2.27, 1.56, 7.21, repro,
2006-07-12,0.66, -1.18, 6.50, 2.26, 1.55, 7.15, repro,
2006-07-13,-0.63, -1.02, 0.37, 2.25, 1.55, 7.16, repro,
2006-07-14,0.10, 0.55, 10.26, 2.25, 1.55, 7.19, repro,
2006-07-15,0.02, -1.01, 1.18, 2.23, 1.55, 7.13, repro,
2006-07-16,-0.22, 0.55, 1.31, 2.27, 1.55, 7.15, repro,
2006-07-17,-1.01, -0.24, 5.92, 2.30, 1.60, 7.34, repro,
2006-07-18,-1.48, -0.60, -0.86, 2.32, 1.65, 7.48, repro,
2006-07-19,0.08, -0.64, 5.64, 2.18, 1.51, 6.89, repro,
2006-07-20,-0.25, 0.15, 3.24, 2.19, 1.52, 6.92, repro,
2006-07-21,1.25, 0.76, -4.27, 2.20, 1.52, 6.92, repro,
2006-07-22,-0.09, 0.28, 1.75, 2.25, 1.58, 7.10, repro,
2006-07-23,-0.01, -0.42, 2.33, 2.20, 1.53, 6.96, repro,
2006-07-24,-0.20, 0.31, 11.53, 2.22, 1.54, 7.02, repro,
2006-07-25,1.07, -0.22, 7.76, 2.21, 1.53, 6.99, repro,
2006-07-26,-0.36, 0.81, 6.11, 2.19, 1.53, 6.95, repro,
2006-07-27,-0.61, -0.09, 2.65, 2.20, 1.53, 6.96, repro,
2006-07-28,-1.75, -0.65, 12.97, 2.20, 1.53, 6.96, repro,
2006-07-29,0.40, -1.48, 5.87, 2.19, 1.53, 6.95, repro,
2006-07-30,-0.78, -2.10, 7.80, 2.25, 1.59, 7.10, repro,
2006-07-31,1.05, -0.30, 8.49, 2.20, 1.53, 6.96, repro,
2006-08-01,-0.78, -1.10, 3.03, 2.19, 1.52, 6.93, repro,
2006-08-02,0.77, -1.25, -1.06, 2.22, 1.57, 7.15, repro,
2006-08-03,-0.07, 0.73, 6.43, 2.21, 1.56, 7.08, repro,
2006-08-04,0.79, -0.18, 10.30, 2.29, 1.59, 7.25, repro,
2006-08-05,-0.94, 0.19, 6.84, 2.29, 1.62, 7.32, repro,
2006-08-06,1.49, -0.30, 6.39, 2.24, 1.57, 7.15, repro,
2006-08-07,1.91, -0.79, 9.25, 2.23, 1.58, 7.18, repro,
2006-08-08,-0.80, -2.06, 8.56, 2.19, 1.53, 6.97, repro,
2006-08-09,-0.56, -1.88, 6.97, 2.24, 1.59, 7.08, repro,
2006-08-10,0.95, -1.28, 9.42, 2.20, 1.53, 7.01, repro,
2006-08-11,-0.47, -0.18, 5.36, 2.23, 1.57, 7.03, repro,
2006-08-12,-1.79, 1.03, 7.72, 2.21, 1.53, 7.00, repro,
2006-08-13,-0.69, -0.95, 4.17, 2.20, 1.53, 6.97, repro,
2006-08-14,-0.13, -1.22, 9.54, 2.24, 1.59, 7.14, repro,
2006-08-15,-1.31, 0.82, 8.35, 2.26, 1.55, 7.03, repro,
2006-08-16,0.32, -0.17, 13.69, 2.18, 1.52, 6.91, repro,
2006-08-17,0.75, -0.03, 5.10, 2.24, 1.58, 7.04, repro,
2006-08-18,1.24, -0.12, 7.96, 2.25, 1.58, 7.12, repro,
2006-08-19,1.54, -0.91, 7.29, 2.21, 1.53, 7.01, repro,
2006-08-20,0.51, -0.61, 9.76, 2.19, 1.54, 6.95, repro,
2006-08-21,0.07, 0.20, 12.32, 2.20, 1.54, 6.96, repro,
2006-08-22,0.03, -0.51, 12.27, 2.21, 1.54, 6.98, repro,
2006-08-23,-0.56, -1.09, 20.51, 2.23, 1.55, 7.03, repro,
2006-08-24,-1.79, -0.84, 15.76, 2.23, 1.56, 7.09, repro,
2006-08-25,-1.02, 0.93, 8.25, 2.25, 1.60, 7.23, repro,
2006-08-26,-1.35, -0.07, 10.57, 2.28, 1.61, 7.28, repro,
2006-08-27,0.23, -0.50, 14.79, 2.28, 1.63, 7.34, repro,
2006-08-28,-0.33, -0.90, 11.84, 2.30, 1.63, 7.40, repro,
2006-08-29,-1.38, -0.40, 10.10, 2.31, 1.64, 7.45, repro,
2006-08-30,-1.67, -1.19, 12.64, 2.37, 1.67, 7.50, repro,
2006-08-31,-0.23, -0.40, 3.85, 2.29, 1.63, 7.35, repro,
2006-09-01,-0.51, -0.80, 5.78, 2.29, 1.63, 7.35, repro,
2006-09-02,-0.55, -0.04, 5.32, 2.29, 1.63, 7.33, repro,
2006-09-03,0.17, 0.07, 10.91, 2.31, 1.64, 7.43, repro,
2006-09-04,0.90, -0.23, 7.33, 2.34, 1.66, 7.52, repro,
2006-09-05,0.72, -1.30, 2.94, 2.35, 1.66, 7.51, repro,
2006-09-06,0.72, -1.45, 5.68, 2.29, 1.64, 7.38, repro,
2006-09-07,-0.13, -1.34, 13.64, 2.33, 1.67, 7.59, repro,
2006-09-08,-0.77, -0.06, 10.64, 2.33, 1.68, 7.62, repro,
2006-09-09,1.14, -2.03, 10.62, 2.28, 1.60, 7.30, repro,
2006-09-10,-0.63, -1.54, 11.88, 2.26, 1.60, 7.24, repro,
2006-09-11,0.39, -1.31, 11.08, 2.26, 1.59, 7.17, repro,
2006-09-12,-0.56, -1.16, 11.51, 2.25, 1.59, 7.11, repro,
2006-09-13,-0.17, -1.77, 16.26, 2.26, 1.60, 7.17, repro,
2006-09-14,0.05, -0.84, 4.93, 2.37, 1.67, 7.49, repro,
2006-09-15,-0.49, -0.80, 13.75, 2.31, 1.59, 7.26, repro,
2006-09-16,-0.12, -1.50, 10.01, 2.23, 1.55, 7.07, repro,
2006-09-17,0.35, -1.13, 7.13, 2.21, 1.54, 6.98, repro,
2006-09-18,-2.18, -1.05, 17.23, 2.22, 1.55, 7.06, repro,
2006-09-19,-0.38, 0.10, 13.51, 2.22, 1.55, 7.05, repro,
2006-09-20,-1.12, -1.13, 10.66, 2.23, 1.55, 7.07, repro,
2006-09-21,-1.10, -1.97, 14.14, 2.27, 1.61, 7.26, repro,
2006-09-22,-0.32, -1.73, 10.91, 2.57, 1.82, 8.34, repro,
2006-09-23,-0.40, -0.74, 9.41, 2.25, 1.58, 7.12, repro,
2006-09-24,-0.35, -0.91, 8.46, 2.27, 1.58, 7.14, repro,
2006-09-25,-0.60, -0.76, 8.91, 2.23, 1.55, 7.04, repro,
2006-09-26,-0.21, -1.34, 7.47, 2.24, 1.56, 7.10, repro,
2006-09-27,0.27, -0.72, 5.47, 2.24, 1.56, 7.08, repro,
2006-09-28,0.06, -0.67, 12.60, 2.22, 1.56, 7.03, repro,
2006-09-29,-0.53, -1.24, 15.00, 2.22, 1.58, 7.10, repro,
2006-09-30,-1.03, -0.29, 22.69, 2.27, 1.61, 7.33, repro,
2006-10-01,-0.43, -0.48, 11.34, 2.26, 1.58, 7.20, repro,
2006-10-02,-0.66, 0.02, 7.20, 2.30, 1.63, 7.30, repro,
2006-10-03,-0.04, -0.97, 6.22, 2.31, 1.66, 7.44, repro,
2006-10-04,-0.22, -0.96, 11.83, 2.23, 1.56, 7.07, repro,
2006-10-05,-0.63, -1.15, 12.56, 2.25, 1.57, 7.13, repro,
2006-10-06,-0.58, -0.54, 3.82, 2.25, 1.56, 7.12, repro,
2006-10-07,1.46, -0.77, 4.64, 2.37, 1.65, 7.53, repro,
2006-10-08,0.69, -1.03, 5.75, 2.28, 1.61, 7.22, repro,
2006-10-09,0.28, -0.52, 1.73, 2.27, 1.62, 7.17, repro,
2006-10-10,0.81, -1.30, 1.89, 2.27, 1.60, 7.34, repro,
2006-10-11,-0.66, -0.65, 7.55, 2.28, 1.61, 7.35, repro,
2006-10-12,-0.04, -0.62, 8.82, 2.26, 1.57, 7.13, repro,
2006-10-13,-0.15, 0.09, 12.01, 2.22, 1.56, 7.10, repro,
2006-10-14,0.51, -1.05, 14.48, 2.27, 1.62, 7.38, repro,
2006-10-15,0.21, -1.70, 17.17, 2.22, 1.60, 7.15, repro,
2006-10-16,-0.44, -1.38, 16.21, 2.23, 1.58, 7.26, repro,
2006-10-17,0.58, -0.65, 13.37, 2.38, 1.65, 7.69, repro,
2006-10-18,-0.47, -0.62, 9.22, 2.18, 1.56, 7.03, repro,
2006-10-19,1.72, -0.58, 10.20, 2.50, 1.74, 7.88, repro,
2006-10-20,1.85, -2.08, 6.46, 2.58, 1.83, 8.54, repro,
2006-10-21,-0.72, -0.05, 3.08, 2.44, 1.71, 7.82, repro,
2006-10-22,-0.16, -0.16, 4.72, 2.28, 1.64, 7.48, repro,
2006-10-23,-1.59, -0.32, 3.71, 2.36, 1.72, 7.66, repro,
2006-10-24,-0.71, -0.06, 5.17, 2.42, 1.67, 7.74, repro,
2006-10-25,0.40, -0.55, 7.98, 2.49, 1.74, 7.93, repro,
2006-10-26,-0.01, -0.51, 10.62, 2.25, 1.63, 7.36, repro,
2006-10-27,1.82, -0.33, 4.94, 2.23, 1.61, 7.23, repro,
2006-10-28,-0.42, -0.16, 6.28, 2.29, 1.60, 7.42, repro,
2006-10-29,0.79, -1.01, 8.38, 2.25, 1.61, 7.35, repro,
2006-10-30,-0.60, -0.45, 9.87, 2.17, 1.55, 6.99, repro,
2006-10-31,0.66, -0.46, 6.78, 2.19, 1.58, 7.16, repro,
2006-11-01,0.61, -0.66, 4.94, 2.35, 1.66, 7.66, repro,
2006-11-02,0.18, -0.79, 12.60, 2.25, 1.60, 7.33, repro,
2006-11-03,0.99, -1.49, 2.76, 2.30, 1.69, 7.61, repro,
2006-11-04,0.37, -0.02, 5.62, 2.30, 1.64, 7.38, repro,
2006-11-05,-0.56, -0.54, 11.08, 2.27, 1.62, 7.26, repro,
2006-11-06,-0.53, -0.37, 6.16, 2.18, 1.56, 7.04, repro,
2006-11-07,0.65, 0.19, 10.54, 2.42, 1.72, 7.66, repro,
2006-11-08,0.16, 0.36, 20.00, 2.36, 1.67, 7.57, repro,
2006-11-09,1.11, -0.15, 11.73, 2.39, 1.70, 7.57, repro,
2006-11-10,0.47, -0.01, 2.80, 2.27, 1.59, 7.17, repro,
2006-11-11,0.04, -1.28, 6.32, 2.31, 1.62, 7.26, repro,